Погода в Клепиково

Россия / Тюменская область     55°57′35″N   69°27′13″E
темп.,
°C
ветер,
м/с
пор.,
м/с
влажн.,
%
обл.,
%
осадки,
мм/ч
давл.,
гПа
погр.,
м
18 сентября, сб
сб1823:00+5зсз71188100 1.1 10011081
02:00+5з61088100 0.1 1002696
05:00+4з61186100 0.1 1004601
08:00+5з697777 0.1 1005764
11:00+7з795191 0.1 10061570
14:00+10з6842100 0.0 10051832
17:00+9зюз565598 0.0 10051250
20:00+6юз3775100 0.1 1005243
19 сентября, вс
вс1923:00+5з3879100 0.1 1005310
02:00+3зюз49949 0.1 1005275
05:00+1зюз5119524 0.1 1006328
08:00+2з7118150 0.0 1007529
11:00+4з81065100 0.0 10071244
14:00+6з71161100 0.0 10081386
17:00+4зсз7128698 0.3 10101013
20:00+3з6148593 0.1 1010847
20 сентября, пн
пн2023:00+4з6137355 0.2 1011753
02:00+3з7147283 0.0 1011665
05:00+2з7147559 0.0 1012728
08:00+3зсз71277100 0.0 1014789
11:00+4сз81067100 0.0 10151284
14:00+5сз796698 0.2 10171253
17:00+5сз61075100 0.4 10191066
20:00+3сз51084100 0.1 1021684
21 сентября, вт
вт2123:00+3сз5989100 0.1 1022647
02:00+3сз598697 0.0 1023710
05:00+2сз5988100 0.1 1023649
08:00+2сз5774100 0.0 10241041
11:00+2сз5771100 0.1 10251079
14:00+4зсз5662100 0.0 10241075
17:00+5зсз4657100 0.0 1023958
20:00+2зюз33765 0.0 102342
22 сентября, ср
ср2223:00+1зюз347862 0.0 102256
02:00+1з337760 0.0 102145
05:00−1ссз338710 0.0 102147
08:00+3ссз3683100 0.0 1022218
11:00+5ссз4575100 0.0 1023776
14:00+7ссз4654100 0.1 10231528
17:00+6с4558100 0.1 1024933
20:00+4с2466100 0.0 1025101